Home   Weather   Eastbourne   Past weeks

Flag for United Kingdom Past Weather in Eastbourne, England, United Kingdom — Yesterday and Last 2 Weeks

Now
64 °F

Smoke.


Feels Like: 64 °F
Forecast: 58 / 65 °F
Wind: 7 mph from Southwest

Location: Herstmonceux

Current Time: Sep 28, 2016 at 11:24:32 AM

Latest Report: Sep 28, 2016 at 10:00 AM


Visibility: 6 mi

Pressure: 30.30 "Hg

Humidity: 83%

Dew Point: 58 °F

Location of EastbourneLocation

Past Weather in Eastbourne — Graph

°F

Eastbourne Temperature Yesterday

Maximum temperature yesterday: 65 °F (at 11:00 AM)
Minimum temperature yesterday: 48 °F (at 4:00 AM)
Average temperature yesterday: 59 °F

High & Low Weather Summary for the Past Weeks

 TemperatureHumidityPressure
High85 °F (Sep 13, 5:00 PM)100% (Sep 23, 8:00 AM)30.30 "Hg (Sep 23, 8:00 AM)
Low47 °F (Sep 24, 1:00 AM)49% (Sep 13, 5:00 PM)29.74 "Hg (Sep 14, 6:00 AM)
Average61 °F83%30.06 "Hg
* Reported Sep 13 10:00 AM — Sep 28 10:00 AM, Eastbourne, Weather by CustomWeather, © 2016

Note: Actual official high and low records may vary slightly from our data, if they occured in-between our weather recording intervals... More about our weather records

Advertising

Eastbourne Weather History for the Previous 24 Hours

Scroll right to see more
 ConditionsComfort  
Time TempWeatherWind HumidityBarometerVisibility
10:00 AM
Wed, Sep 28
64 °FSmoke.7 mph83%30.30 "Hg6 mi
9:00 AM58 °FFog.3 mph95%30.30 "Hg4 mi
8:00 AM55 °FSmoke.5 mph94%30.29 "Hg5 mi
7:00 AM55 °FSmoke.6 mph91%30.29 "Hg5 mi
6:00 AM56 °FCool.6 mph89%30.28 "Hg6 mi
5:00 AM58 °FCool.7 mph91%30.28 "Hg9 mi
4:00 AM60 °FCool.6 mph96%30.27 "Hg11 mi
3:00 AM60 °FCool.5 mph96%30.27 "Hg6 mi
2:00 AM61 °FCool.5 mph97%30.27 "Hg9 mi
1:00 AM62 °FCool.5 mph97%30.28 "Hg7 mi
12:00 AM62 °FMild.5 mph98%30.27 "Hg6 mi
11:00 PM
Tue, Sep 27
62 °FLight rain. Overcast.5 mph97%30.28 "Hg4 mi
10:00 PM62 °FFog.3 mph96%30.27 "Hg6 mi
9:00 PM62 °FCool.5 mph94%30.27 "Hg16 mi
8:00 PM62 °FCool.6 mph96%30.26 "Hg11 mi
7:00 PM63 °FRain. Overcast.8 mph93%30.25 "Hg2 mi
6:00 PM64 °FMild.7 mph90%30.23 "Hg25 mi
5:00 PM64 °FLight rain. Cloudy.10 mph91%30.22 "Hg9 mi
4:00 PM64 °FMild.10 mph91%30.22 "Hg9 mi
3:00 PM63 °FMild.9 mph92%30.23 "Hg7 mi
2:00 PM62 °FCool.9 mph91%30.23 "Hg13 mi
1:00 PM64 °FMild.14 mph75%30.23 "Hg15 mi
12:00 PM65 °FMild.13 mph71%30.23 "Hg16 mi
11:00 AM65 °FMild.14 mph65%30.23 "Hg16 mi
Weather by CustomWeather, © 2016

See weather overviewHow to use our weather pages